Regional Weather Roundup
Issued by NWS

Home | Current Version | Previous Version | Graphics & Text | Print | Product List | Glossary On
Versions: 1 2 3 4 5 6 7 8 9 10 11 12 13 14 15 16 17 18 19 20 21 22 23 24 25 26 27 28 29 30 31 32 33 34 35 36 37 38 39 40 41 42 43 44 45 46 47 48 49 50
808
ASUS44 KLIX 250901
RWRLA
LOUISIANA WEATHER ROUNDUP
NATIONAL WEATHER SERVICE NEW ORLEANS LA
300 AM CST SUN JAN 25 2015

NOTE: "FAIR" INDICATES FEW OR NO CLOUDS BELOW 12,000 FEET WITH NO
      SIGNIFICANT WEATHER AND/OR OBSTRUCTIONS TO VISIBILITY.
      SKY/WX - SKY CONDITION AND SIGNIFICANT WEATHER.
      TMP - AIR TEMPERATURE.    DP   - DEWPOINT TEMPERATURE.
      RH  - RELATIVE HUMIDITY.  PRES - PRESSURE.
      HX  - HEAT INDEX.         WCI  - WIND CHILL INDEX.

*  THESE STATIONS ARE NOT NWS OR FAA STATIONS AND ARE NOT UNDER
   NWS QUALITY CONTROL.

LAZ040-048-061>063-065-066-069-251000-
SOUTHEAST LOUISIANA

CITY           SKY/WX    TMP DP  RH WIND       PRES   REMARKS
N.O. AUDUBON   NOT AVBL
N.O. INTL ARPT PTCLDY    42  39  89 SW6       30.07S
N.O. LAKEFRONT PTCLDY    47  42  83 SW7       30.08F
N.O. DOWNTOWN* FAIR      46  39  76 S3        30.08S
SLIDELL        CLEAR     39  37  92 CALM      30.06F
BATON ROUGE    PTCLDY    41  38  89 SW8       30.05S
BOOTHVILLE     CLEAR     46  42  86 W6        30.10S
BELLE CHASSE   CLEAR     37  34  87 CALM      30.08S FOG
BOGALUSA*        N/A     35  32  91 CALM      30.06F
GALLIANO*      NOT AVBL
NEW ROADS*     NOT AVBL
GONZALES*      NOT AVBL
HAMMOND*       NOT AVBL
HOUMA*         SNOW      37  37 100 CALM      30.08F VSB<1/4
PORT FOURCHON* MOSUNNY   52  46  82 W6        30.13R

$$

LAZ041-044-053-054-251000-
SOUTHWEST LOUISIANA

CITY           SKY/WX    TMP DP  RH WIND       PRES   REMARKS
LAKE CHARLES   CLEAR     45  43  93 SW5       30.05F
LAFAYETTE      PTCLDY    43  42  97 SW7       30.05F
PATTERSON      CLEAR     39  37  93 SW3       30.08S
SALT POINT       N/A     49  47  93 W3        30.06F
NEW IBERIA     CLEAR     43  40  89 CALM      30.07F FOG
CHENAULT AIRPK CLEAR     45  43  93 SW5       30.06F

$$

LAZ027-028-251000-
CENTRAL LOUISIANA

CITY           SKY/WX    TMP DP  RH WIND       PRES   REMARKS
FORT POLK      CLEAR     39  37  94 S5        30.02S
ALEXANDRIA INT CLEAR     42  37  82 CALM      30.00F
ALEXANDRIA     CLEAR     34  32  92 CALM      30.01F

$$

LAZ001-002-251000-
NORTHWEST LOUISIANA

CITY           SKY/WX    TMP DP  RH WIND       PRES   REMARKS
SHREVEPORT     CLEAR     38  34  85 S3        29.96F
BARKSDALE AFB  CLEAR     36  31  83 S5        29.98S WCI  32
DTN SHREVEPORT CLEAR     41  33  73 SW7       29.97F

$$

LAZ014-016-251000-
NORTHEAST LOUISIANA

CITY           SKY/WX    TMP DP  RH WIND       PRES   REMARKS
MONROE         CLEAR     39  36  89 S6        29.99S WCI  35
TALLULAH       CLEAR     42  36  79 VRB5      30.00F

$$




USA.gov is the U.S. government's official web portal to all federal, state and local government web resources and services.